Location: Dziadowski
(50.3833°N, 20.0333°E)
Time: 23:18:04
(UTC+00:00)

BREEZE-M DEB (TANK) - Pass Details

Date: 18 January 2026
Orbit: 291 x 14649 km, 49.5° (Epoch: 16 February)

Event Time Altitude Azimuth Distance (km) Brightness Sun altitude
Exits shadow 03:54:19 39° 252° (WSW) 2,102 4.7 -24.5°
Maximum altitude 03:55:35 41° 231° (SW) 1,783 4.5 -24.3°
Drops below altitude 10° 03:59:58 10° 160° (SSE) 2,152 5.6 -23.6°
Sets 04:01:27 0° 151° (SSE) 2,709 6.3 -23.4°
